Content
SEND FEEDBACK

Daily
Averages
Monthly
Summary
Switzerland

GENEVA, SWITZERLAND


Home > Europe > Switzerland
Elevation: 1364 feet     Latitude: 46 15N     Longitude: 006 08E

WEATHER
 
SELECT A DAY
Number of Records: 311,735;   Date Range: 7/1/96 - 9/30/14
 
SHARE

PRINT THIS DATA

[ ← Previous Day ]
WEATHER ALMANAC - APRIL 16, 2013
[ Next Day → ]
[ °C ]   °F
Weather ElementAverageHighLow
Temperature62.5 °F73.4 °F (2:20 pm)50 °F (4:50 am)
Dewpoint45.1 °F48.2 °F (8:50 am)42.8 °F (12:20 am)
Humidity52.6 %82 % (4:50 am)24 % (2:00 pm)
Barometer30.16 in30.21 in (8:50 pm)30.12 in (12:20 am)
Wind Speed2.7 mph6.9 mph (4:00 pm)
Weather ElementAverage
Visibility8.8 mi
Wind DirectionESE (120 °)

Weather ElementTotal
Precipitation---
Heating Degree Days3.3 (Base 65)
Growing Degree Days11.7 (Base 50)
Averaged from 67 records on April 16, 2013
WEATHER CONDITIONS BREAKOUT
WIND DIRECTION BREAKOUT
WEATHER BY HOUR - APRIL 16, 2013
[ °C ]   °F
Local TimeTemperatureDewpointHumidityBarometerVisibilityWind DirectionWind SpeedGust SpeedPrecipitationEventsConditions
12:20 AM55.4 °F42.8 °F63 %30.12 inCalmClear
12:50 AM55.4 °F44.6 °F67 %30.12 inVariable2.3 mphClear
1:00 AM56.0 °F43.0 °F52 %30.14 inWSW (240°)3.5 mph
1:20 AM55.4 °F44.6 °F67 %30.12 inVariable1.2 mphClear
1:50 AM55.4 °F44.6 °F67 %30.15 in6.2 miSW (220°)2.3 mphScattered Clouds
2:00 AM53.0 °F45.0 °F66 %30.15 in31.0 miNW (310°)1.2 mphPartly Cloudy
2:20 AM53.6 °F44.6 °F72 %30.15 in6.2 miCalmScattered Clouds
2:50 AM53.6 °F44.6 °F72 %30.12 in6.2 miNW (320°)2.3 mphScattered Clouds
3:00 AM54.0 °F45.0 °F62 %30.15 inNorth (350°)2.3 mph
3:50 AM53.6 °F46.4 °F77 %30.15 in6.2 miCalmScattered Clouds
4:00 AM53.0 °F45.0 °F65 %30.15 inSouth (190°)1.2 mph
4:20 AM51.8 °F44.6 °F76 %30.15 inVariable1.2 mphClear
4:50 AM50.0 °F44.6 °F82 %30.15 in6.2 miVariable1.2 mphScattered Clouds
5:20 AM51.8 °F44.6 °F76 %30.15 in6.2 miVariable2.3 mphMostly Cloudy
5:50 AM51.8 °F44.6 °F76 %30.15 in6.2 miVariable1.2 mphMostly Cloudy
6:00 AM52.0 °F45.0 °F69 %30.17 inSSE (160°)1.2 mph
6:20 AM51.8 °F44.6 °F76 %30.15 in6.2 miVariable1.2 mphMostly Cloudy
6:50 AM51.8 °F44.6 °F76 %30.15 in6.2 miVariable1.2 mphMostly Cloudy
7:00 AM52.0 °F45.0 °F68 %30.18 inWNW (300°)1.2 mph
7:20 AM51.8 °F44.6 °F76 %30.15 in6.2 miVariable1.2 mphMostly Cloudy
7:50 AM55.4 °F46.4 °F72 %30.18 in6.2 miCalmScattered Clouds
8:00 AM56.0 °F46.0 °F60 %30.18 in31.0 miWNW (300°)2.3 mphPartly Cloudy
8:20 AM55.4 °F46.4 °F72 %30.18 in6.2 miCalmMostly Cloudy
8:50 AM59.0 °F48.2 °F67 %30.18 in6.2 miCalmScattered Clouds
9:00 AM58.0 °F44.0 °F49 %30.18 inSSE (150°)1.2 mph
9:20 AM60.8 °F44.6 °F55 %30.18 in6.2 miCalmScattered Clouds
9:50 AM60.8 °F44.6 °F55 %30.18 in6.2 miCalmScattered Clouds
10:00 AM61.0 °F43.0 °F41 %30.18 inWNW (290°)1.2 mph
10:09 AM62.6 °F44.6 °F52 %30.18 in6.2 miVariable1.2 mphScattered Clouds
10:20 AM64.4 °F44.6 °F49 %30.18 in6.2 miVariable1.2 mphScattered Clouds
10:50 AM64.4 °F44.6 °F49 %30.18 in6.2 miVariable2.3 mphScattered Clouds
11:20 AM68.0 °F44.6 °F43 %30.18 in6.2 miSouth (170°)4.6 mphScattered Clouds
11:50 AM68.0 °F46.4 °F46 %30.18 in6.2 miVariable1.2 mphScattered Clouds
12:00 PM67.0 °F43.0 °F30 %30.16 inEast (100°)3.5 mph
12:20 PM69.8 °F44.6 °F40 %30.18 in6.2 miVariable1.2 mphScattered Clouds
12:50 PM71.6 °F44.6 °F38 %30.18 in6.2 miVariable3.5 mphScattered Clouds
1:00 PM72.0 °F44.0 °F26 %30.14 inSW (230°)2.3 mph
1:20 PM71.6 °F42.8 °F35 %30.18 in6.2 miESE (120°)4.6 mphPartly Cloudy
1:50 PM71.6 °F44.6 °F38 %30.18 in6.2 miVariable4.6 mphPartly Cloudy
2:00 PM72.0 °F43.0 °F24 %30.13 in37.0 miSSW (210°)5.8 mphScattered Clouds
2:20 PM73.4 °F44.6 °F36 %30.15 in6.2 miVariable5.8 mphPartly Cloudy
2:50 PM73.4 °F42.8 °F33 %30.15 in6.2 miWest (260°)5.8 mphPartly Cloudy
3:00 PM72.0 °F44.0 °F26 %30.12 inSW (230°)3.5 mph
3:20 PM73.4 °F42.8 °F33 %30.15 in6.2 miVariable5.8 mphPartly Cloudy
3:50 PM73.4 °F44.6 °F36 %30.15 in6.2 miWest (260°)5.8 mphMostly Cloudy
4:00 PM72.0 °F45.0 °F27 %30.12 inWNW (290°)6.9 mph
4:20 PM73.4 °F46.4 °F38 %30.15 in6.2 miWNW (290°)4.6 mphMostly Cloudy
4:50 PM71.6 °F44.6 °F38 %30.15 in6.2 miVariable3.5 mphMostly Cloudy
5:20 PM73.4 °F44.6 °F36 %30.15 in6.2 miWSW (240°)4.6 mphMostly Cloudy
5:50 PM71.6 °F46.4 °F41 %30.15 in6.2 miWNW (290°)6.9 mphMostly Cloudy
6:00 PM72.0 °F45.0 °F27 %30.12 inWNW (300°)6.9 mph
6:20 PM71.6 °F46.4 °F41 %30.15 in6.2 miNW (310°)6.9 mphMostly Cloudy
6:50 PM69.8 °F44.6 °F40 %30.18 in6.2 miWNW (300°)6.9 mphMostly Cloudy
7:00 PM70.0 °F44.0 °F28 %30.14 inWNW (300°)4.6 mph
7:20 PM69.8 °F46.4 °F43 %30.18 in6.2 miVariable1.2 mphOvercast
7:50 PM69.8 °F44.6 °F40 %30.18 in6.2 miVariable1.2 mphOvercast
8:00 PM68.0 °F44.0 °F30 %30.15 in31.0 miWest (270°)2.3 mphOvercast
8:20 PM66.2 °F46.4 °F49 %30.18 inCalmClear
8:50 PM66.2 °F46.4 °F49 %30.21 inVariable3.5 mphClear
9:00 PM63.0 °F47.0 °F45 %30.18 inNNW (330°)2.3 mph
9:20 PM62.6 °F48.2 °F59 %30.21 inVariable2.3 mphClear
9:50 PM62.6 °F48.2 °F59 %30.21 inSE (140°)4.6 mphClear
10:00 PM59.0 °F47.0 °F56 %30.20 inESE (110°)5.8 mph
10:20 PM59.0 °F48.2 °F67 %30.21 inVariable2.3 mphClear
10:50 PM59.0 °F46.4 °F63 %30.21 inNNE (20°)1.2 mphClear
11:20 PM59.0 °F48.2 °F67 %30.21 inNW (320°)2.3 mphClear
11:50 PM57.2 °F48.2 °F72 %30.21 inESE (120°)2.3 mphClear
Hourly data recorded from LSGG, located miles away from Geneva, Switzerland







STORIES FROM OUR PARTNERS